Kenansville, NC

8:23 PM EST on January 22, 2017 (GMT -0500)
Duplin County

Weather History for KDPL - January, 2013

Change the Weather History Date:

Saturday, January 12, 2013

  Actual Average (KOAJ) Record (KOAJ)
Temperature  
Mean Temperature 62 °F -  
Max Temperature 74 °F 51 °F 73 °F (2006)
Min Temperature 50 °F 31 °F 19 °F (1997)
Degree Days  
Heating Degree Days 3    
Growing Degree Days 12 (Base 50)    
Moisture  
Dew Point 58 °F    
Average Humidity 91    
Maximum Humidity 98    
Minimum Humidity 65    
Precipitation  
Precipitation 0.01 in - - ()
Sea Level Pressure  
Sea Level Pressure 30.14 in    
Wind  
Wind Speed 1 mph (West)    
Max Wind Speed 7 mph    
Max Gust Speed -    
Visibility 4 miles    
Events Fog    
Averages and records for this station are not official NWS values.
T = Trace of Precipitation, MM = Missing Value Source: NWS Daily Summary

Daily Weather History Graph

Daily Weather History Graph

Search for Another Location

Airport or City:

Trip Planner

Search our weather history database for the weather conditions in past years. The results will help you decide how hot, cold, wet, or windy it might be!

Date:

Astronomy

Jan. 12, 2013 Rise Set
Actual Time 7:20 AM EST 5:20 PM EST
Civil Twilight 6:52 AM EST 5:48 PM EST
Nautical Twilight 6:21 AM EST 6:19 PM EST
Astronomical Twilight 5:50 AM EST 6:50 PM EST
Moon 7:41 AM EST (1/12) 6:42 PM EST (1/12)
Length of Visible Light 10h 56m
Length of Day
10h 00m
New Moon, 1% of the Moon is Illuminated
Jan 12
New Moon
Jan 18
First Quarter
Jan 26
Full
Feb 3
Last Quarter
Feb 10
New

Hourly Weather History & Observations

Time (EST) Temp. Dew Point Humidity Pressure Visibility Wind Dir Wind Speed Gust Speed Precip Events Conditions
12:15 AM 60.8 °F 60.1 °F 97% 30.16 in 3.0 mi Calm Calm - N/A   Clear
12:35 AM 59.9 °F 59.2 °F 97% 30.16 in 3.0 mi Calm Calm - N/A   Clear
12:55 AM 59.4 °F 58.6 °F 97% 30.15 in 0.2 mi Calm Calm - N/A Fog Fog
1:15 AM 59.4 °F 58.8 °F 98% 30.15 in 0.5 mi Calm Calm - N/A Fog Fog
1:35 AM 59.5 °F 58.8 °F 97% 30.15 in 4.0 mi SW 3.5 mph - N/A   Scattered Clouds
1:55 AM 59.5 °F 58.8 °F 97% 30.15 in 3.0 mi SW 3.5 mph - N/A   Clear
2:15 AM 59.7 °F 59.0 °F 97% 30.16 in 7.0 mi SW 5.8 mph - N/A   Clear
2:35 AM 59.4 °F 58.8 °F 98% 30.16 in 7.0 mi West 3.5 mph - N/A   Clear
2:55 AM 58.5 °F 57.6 °F 97% 30.16 in 1.8 mi Calm Calm - N/A   Mist
3:15 AM 56.7 °F 55.9 °F 97% 30.16 in 0.2 mi Calm Calm - N/A Fog Fog
3:35 AM 56.8 °F 56.1 °F 97% 30.16 in 0.5 mi Calm Calm - N/A Fog Fog
3:55 AM 54.5 °F 53.8 °F 97% 30.15 in 0.2 mi Calm Calm - N/A Fog Fog
4:35 AM 54.3 °F 53.4 °F 97% 30.15 in 0.2 mi Calm Calm - N/A Fog Fog
4:55 AM 54.0 °F 53.2 °F 97% 30.15 in 0.5 mi Calm Calm - N/A Fog Fog
5:15 AM 53.6 °F 52.7 °F 97% 30.15 in 0.2 mi Calm Calm - N/A Fog Fog
5:35 AM 52.5 °F 51.8 °F 97% 30.14 in 0.5 mi Calm Calm - N/A Fog Fog
5:55 AM 52.7 °F 52.0 °F 97% 30.14 in 0.8 mi Calm Calm - N/A   Overcast
6:15 AM 53.1 °F 52.3 °F 97% 30.15 in 0.5 mi Calm Calm - N/A Fog Fog
6:35 AM 51.6 °F 51.1 °F 98% 30.16 in 0.5 mi Calm Calm - N/A Fog Fog
6:55 AM 52.3 °F 51.8 °F 98% 30.16 in 0.5 mi Calm Calm - N/A Fog Fog
7:15 AM 51.6 °F 51.1 °F 98% 30.16 in 0.5 mi Calm Calm - 0.01 in Fog Fog
7:35 AM 50.9 °F 50.2 °F 97% 30.16 in 1.5 mi Calm Calm - 0.01 in   Mostly Cloudy
7:55 AM 52.5 °F 52.0 °F 98% 30.17 in 0.2 mi Calm Calm - 0.01 in Fog Fog
8:15 AM 56.7 °F 55.8 °F 97% 30.17 in 3.0 mi Calm Calm - N/A   Overcast
8:35 AM 59.0 °F 58.3 °F 97% 30.17 in 4.0 mi Calm Calm - N/A   Overcast
8:55 AM 60.1 °F 59.4 °F 97% 30.18 in 5.0 mi Calm Calm - N/A   Overcast
9:15 AM 60.8 °F 60.1 °F 97% 30.18 in 7.0 mi SW 3.5 mph - N/A   Mostly Cloudy
9:35 AM 62.1 °F 61.2 °F 97% 30.18 in 7.0 mi SW 3.5 mph - N/A   Mostly Cloudy
9:55 AM 63.0 °F 62.1 °F 97% 30.18 in 7.0 mi SW 3.5 mph - N/A   Mostly Cloudy
10:15 AM 63.3 °F 61.9 °F 95% 30.18 in 7.0 mi WSW 4.6 mph - N/A   Overcast
10:35 AM 64.0 °F 62.2 °F 94% 30.18 in 10.0 mi WSW 5.8 mph - N/A   Mostly Cloudy
10:55 AM 65.1 °F 62.6 °F 92% 30.18 in 10.0 mi West 4.6 mph - N/A   Mostly Cloudy
11:15 AM 66.2 °F 62.8 °F 89% 30.17 in 10.0 mi Calm Calm - N/A   Mostly Cloudy
11:35 AM 68.2 °F 62.8 °F 83% 30.16 in 10.0 mi West 4.6 mph - N/A   Mostly Cloudy
11:55 AM 70.0 °F 62.8 °F 78% 30.15 in 10.0 mi West 5.8 mph - N/A   Scattered Clouds
12:15 PM 70.0 °F 62.6 °F 77% 30.14 in 10.0 mi West 6.9 mph - N/A   Scattered Clouds
12:55 PM 71.2 °F 62.4 °F 74% 30.13 in 10.0 mi WSW 3.5 mph - N/A   Clear
1:15 PM 71.6 °F 62.2 °F 72% 30.13 in 10.0 mi West 4.6 mph - N/A   Clear
1:35 PM 72.0 °F 62.2 °F 71% 30.12 in 10.0 mi West 4.6 mph - N/A   Clear
1:55 PM 73.0 °F 62.6 °F 70% 30.12 in 10.0 mi NW 3.5 mph - N/A   Scattered Clouds
2:15 PM 73.6 °F 62.6 °F 68% 30.12 in 10.0 mi North 4.6 mph - N/A   Clear
2:35 PM 73.9 °F 62.6 °F 68% 30.11 in 10.0 mi North 4.6 mph - N/A   Clear
2:55 PM 74.1 °F 62.2 °F 66% 30.11 in 10.0 mi North 3.5 mph - N/A   Clear
3:15 PM 74.7 °F 62.2 °F 65% 30.11 in 10.0 mi Calm Calm - N/A   Clear
3:35 PM 74.5 °F 62.4 °F 66% 30.11 in 10.0 mi North 3.5 mph - N/A   Clear
3:55 PM 73.6 °F 62.6 °F 68% 30.12 in 10.0 mi NNE 3.5 mph - N/A   Clear
4:15 PM 73.2 °F 62.4 °F 69% 30.12 in 10.0 mi Calm Calm - N/A   Clear
4:35 PM 72.0 °F 63.0 °F 73% 30.13 in 10.0 mi NNE 3.5 mph - N/A   Clear
4:55 PM 70.0 °F 63.1 °F 79% 30.13 in 10.0 mi Calm Calm - N/A   Clear
5:15 PM 66.6 °F 63.9 °F 91% 30.13 in 10.0 mi Calm Calm - N/A   Clear
5:35 PM 64.6 °F 62.8 °F 94% 30.13 in 7.0 mi Calm Calm - N/A   Clear
5:55 PM 63.0 °F 61.5 °F 95% 30.13 in 5.0 mi Calm Calm - N/A   Clear
6:15 PM 62.2 °F 61.0 °F 96% 30.13 in 4.0 mi Calm Calm - N/A   Clear
6:35 PM 61.2 °F 60.1 °F 96% 30.13 in 2.5 mi Calm Calm - N/A   Clear
6:55 PM 61.0 °F 59.9 °F 96% 30.13 in 3.0 mi Calm Calm - N/A   Clear
7:15 PM 60.1 °F 59.0 °F 96% 30.13 in 1.0 mi Calm Calm - N/A   Mist
7:35 PM 59.9 °F 59.0 °F 97% 30.12 in 2.5 mi Calm Calm - N/A   Clear
8:15 PM 58.3 °F 57.4 °F 97% 30.12 in 2.5 mi Calm Calm - N/A   Clear
8:35 PM 58.1 °F 57.2 °F 97% 30.12 in 1.2 mi Calm Calm - N/A   Mist
8:55 PM 57.6 °F 56.7 °F 97% 30.12 in 1.0 mi Calm Calm - N/A   Mist
9:15 PM 57.0 °F 56.1 °F 97% 30.12 in 1.0 mi Calm Calm - N/A   Mist
9:35 PM 57.2 °F 56.3 °F 97% 30.12 in 1.8 mi Calm Calm - N/A   Scattered Clouds
9:55 PM 55.8 °F 54.9 °F 97% 30.13 in 1.2 mi Calm Calm - N/A   Mostly Cloudy
10:15 PM 56.1 °F 55.4 °F 97% 30.13 in 0.5 mi Calm Calm - N/A Fog Fog
10:35 PM 55.8 °F 55.0 °F 97% 30.13 in 0.2 mi Calm Calm - N/A Fog Fog
10:55 PM 55.8 °F 55.0 °F 97% 30.13 in 0.2 mi Calm Calm - N/A Fog Fog
11:15 PM 55.2 °F 54.5 °F 97% 30.13 in 0.5 mi Calm Calm - N/A Fog Fog
11:35 PM 53.8 °F 53.1 °F 97% 30.13 in 0.2 mi Calm Calm - N/A Fog Fog
11:55 PM 54.5 °F 53.6 °F 97% 30.13 in 0.8 mi Calm Calm - N/A   Overcast